カタログに戻る

FENGYUN 1C DEB

運用中PO
NORAD 30575·DEBRIS·🇨🇳 China

打ち上げ May 10, 1999 から Taiyuan Satellite Launch Center

Loading…

次のパス (今後24時間)

TLE

最新Source: Space-Track

元期: Sep 14, 2026, 19:54 UTC

1 30575U 99025ALR 26257.82979921  .00001936  00000-0  60159-3 0  9997
2 30575  99.1771  13.5423 0054047 145.3219  16.7476 14.41466435 21843

AllMySatでFENGYUN 1C DEBをリアルタイム追跡

Download on the App Store